Погода в Хольбеке

Дания     55°42′21″N   11°42′51″E
темп.,
°C
ветер,
м/с
пор.,
м/с
влажн.,
%
обл.,
%
осадки,
мм/ч
давл.,
гПа
погр.,
м
9 декабря, чт
чт901:00+1юв71185100 0.0 1007646
04:00+2юв6979100 0.0 1006754
07:00+2юв61082100 0.0 1007717
10:00+2юв61080100 0.0 1007725
13:00+3юв5882100 0.1 1006703
16:00+2юв4890100 0.1 1006540
19:00+1ю4794100 0.2 1005393
22:000ю478990 0.0 1005357
10 декабря, пт
пт1001:00+1ююв4585100 0.0 1004357
04:00+1юв3587100 0.1 1002216
07:00+1юв3483100 0.1 1002158
10:00+2в2380100 0.1 1001189
13:00+2всв3480100 0.1 1000429
16:00+1св3493100 0.1 999232
19:00+1ссв11100100 2.1 1000111
22:00+1зюз1199100 1.1 1002121
11 декабря, сб
сб1101:00+1юз2399100 1.8 1003153
04:00+1ююз3499100 0.4 1006255
07:00+2зюз469688 0.8 1008424
10:00+1ююз4791100 0.1 1010311
13:00+2зюз5896100 0.2 1012526
16:00+3зсз6775100 0.1 1013580
19:00+3зсз4673100 0.1 1015378
22:00+3зсз358089 0.0 1017212
12 декабря, вс
вс1201:00+2зсз348649 0.0 1018199
04:00+3з348397 0.0 1019330
07:00+2юз338470 0.0 1020106
10:00+2ююз3488100 0.0 1021128
13:00+3ю3688100 0.0 1021205
16:00+3ююз3695100 0.0 1022155
19:00+3ююз359569 0.0 1022114
22:00+3ю3694100 0.0 1023170
13 декабря, пн
пн1301:00+4ююв3696100 0.1 1024217
04:00+4ююв3697100 0.1 1024201
07:00+4ююв3597100 0.2 1025168
10:00+4ююв3596100 0.1 1025177
13:00+5ююв4594100 0.1 1025219
16:00+4ююв3596100 0.0 1026155
19:00+4ю469479 0.0 1025251
22:00+4ююв489598 0.0 1025244